www.pogodaiklimat.ru

Погода и климат >> Архив погоды >> Франция >> Безье


ПОГОДА в Безье

  • Прогноз погоды в Безье
  • Монитор погоды в Безье

АРХИВ ПОГОДЫ в Безье

Время (UTC), дата Ветер
(напр.,м/с)
 
Видим.   Явления Облачность Т
(С)
Тd
(С)
f
(%)
Тe
(С)
Тes
(С)
Комфортность P
(гПа)
Po
(гПа)
Тmin
(С)
Tmax
(С)
R
(мм)
R24
(мм)
S
(см)
22 11.06 З 3-4
{4}
55 км 10/10
[]
+13.5 +8.8 73 +13 +13 1013.8 1011.9
23 11.06 З 2-3
{5}
55 км н/о +12.2 +8.3 77 +12 +12 1013.9 1012.0
00 12.06 З 2-3
{4}
45 км н/о +11.3 +8.3 82 +10 +10 1014.0 1012.1 0
01 12.06 З 2-4
{4}
45 км н/о +10.8 +8.2 84 +9 +9 1013.8 1011.9
02 12.06 З 2-3
{3}
40 км н/о +10.0 +7.8 86 +9 +9 1013.5 1011.6
03 12.06 З 1-2
{3}
55 км н/о +8.9 +6.9 87 +8 +8 1013.8 1011.8 0
04 12.06 З 1-1
{2}
35 км н/о +7.9 +5.9 87 +7 +7 1014.0 1012.0
05 12.06 ЮЗ 1-1
{2}
55 км н/о +8.6 +7.4 92 +9 +9 1014.4 1012.4
06 12.06 З 2
{4}
29 км н/о +12.3 +8.4 77 +12 +12 1014.7 1012.8 +7.4 +16.0 0
07 12.06 З 2-3
{3}
30 км н/о +15.0 +8.7 66 +15 +15 1015.0 1013.1
08 12.06 ЮЗ 1-2
{3}
23 км н/о +16.2 +7.1 55 +17 +17 1015.2 1013.3
09 12.06 З 1-3
{3}
40 км н/о +17.7 +7.4 51 +19 +19 1014.9 1013.0 0
10 12.06 З 2-4
{4}
30 км н/о +19.1 +7.5 47 +20 +20 1014.8 1012.9
11 12.06 Ю 3-5
{5}
40 км н/о +19.6 +8.6 49 +21 +21 комфорт 1014.6 1012.7
12 12.06 Ю 3-4
{5}
45 км н/о +19.6 +8.6 49 +21 +21 комфорт 1014.4 1012.5 0
13 12.06 Ю 4-5
{5}
29 км н/о +19.5 +8.5 49 +20 +20 1014.4 1012.5
14 12.06 Ю 3-5
{6}
26 км н/о +19.9 +10.6 55 +22 +22 комфорт 1014.3 1012.4
15 12.06 Ю 4-5
{5}
23 км н/о +19.8 +9.4 51 +21 +21 комфорт 1014.2 1012.3 0
16 12.06 Ю 4-6
{6}
19 км н/о +19.1 +10.1 56 +20 +20 1014.0 1012.1
17 12.06 Ю 3-5
{6}
18 км н/о +18.6 +10.4 59 +19 +19 1014.2 1012.3
18 12.06 Ю 3-4
{5}
26 км н/о +18.2 +11.3 64 +19 +19 1014.4 1012.5 +12.3 +20.6 0
19 12.06 ЮЗ 3-4
{4}
24 км н/о +17.2 +12.3 73 +17 +17 1014.7 1012.8
20 12.06 ЮЗ 2-3
{4}
23 км н/о +15.9 +13.0 83 +16 +16 1015.1 1013.2
21 12.06 З 1-2
{3}
21 км н/о +15.3 +13.1 87 +16 +16 1015.6 1013.7 0
22 12.06 З 1-1
{2}
17 км н/о +14.4 +13.1 92 +15 +15 1015.9 1014.0
23 12.06 ЮВ 1-1
{1}
15 км н/о +13.3 +12.0 92 +14 +14 1015.7 1013.8
00 13.06 СВ 1-1
{4}
10 км н/о +12.1 +11.2 94 +12 +12 1015.2 1013.3 0
01 13.06 С 1-1
{1}
14 км н/о +11.4 +10.5 94 +12 +12 1015.0 1013.1
02 13.06 СВ 1-1
{2}
17 км н/о +10.7 +9.9 95 +11 +11 1014.7 1012.8
03 13.06 С 2-2
{2}
27 км н/о +10.3 +9.2 93 +9 +9 1014.7 1012.8 0
04 13.06 СВ 1-2
{2}
28 км н/о +10.0 +8.8 92 +10 +10 1015.0 1013.1
05 13.06 СВ 2-2
{2}
28 км н/о +11.4 +9.3 87 +11 +11 1015.3 1013.4
06 13.06 СВ 2
{5}
29 км н/о +14.4 +9.2 71 +14 +14 1015.5 1013.6 +9.8 +18.1 0
07 13.06 СВ 3-4
{4}
30 км н/о +17.7 +9.3 58 +18 +18 1015.5 1013.6
08 13.06 В 2-4
{4}
30 км н/о +20.3 +9.5 50 +22 +22 комфорт 1015.6 1013.7
09 13.06 В 3-4
{4}
35 км н/о +22.0 +8.5 42 +23 +23 комфорт 1015.6 1013.7 1
10 13.06 В 3-4
{4}
30 км н/о +21.5 +10.0 48 +23 +23 комфорт 1015.7 1013.8
11 13.06 ЮВ 3-5
{5}
19 км н/о +21.4 +12.3 56 +24 +24 комфорт 1015.6 1013.7
12 13.06 ЮВ 3-4
{5}
25 км н/о +21.3 +12.2 56 +23 +23 комфорт 1015.4 1013.5 1
13 13.06 ЮВ 3-5
{5}
22 км н/о +21.1 +12.5 58 +23 +23 комфорт 1015.2 1013.3
14 13.06 ЮВ 3-4
{5}
21 км н/о +19.9 +12.6 63 +22 +22 комфорт 1014.8 1012.9
15 13.06 ЮВ 3-4
{5}
20 км н/о +20.5 +11.9 58 +23 +23 комфорт 1014.8 1012.9 0
16 13.06 ЮВ 2-3
{5}
30 км н/о +19.2 +13.1 68 +21 +21 комфорт 1014.8 1012.9
17 13.06 ЮВ 2-3
{3}
35 км 9/9
[]
+19.1 +12.4 65 +21 +21 комфорт 1014.6 1012.7
18 13.06 ЮВ 2
{6}
40 км 9/9 <50 м
[]
+19.2 +10.7 58 +21 +22 комфорт 1014.2 1012.3 +14.5 +22.5 0
19 13.06 СВ 1-2
{3}
40 км н/о +17.7 +11.3 66 +19 +19 1014.2 1012.3
20 13.06 СВ 2-2
{2}
40 км 10/10
[]
+17.0 +11.7 71 +18 +18 1014.2 1012.3
21 13.06 СВ 1-1
{2}
45 км 10/0
[]
+16.5 +11.4 72 +18 +18 1014.8 1012.9 0
22 13.06 В 1-1
{2}
35 км 10/10
[]
+16.1 +11.5 74 +17 +17 1014.7 1012.8
23 13.06 СВ 1-2
{2}
35 км 10/10
[]
+15.8 +11.0 73 +16 +16 1014.5 1012.6
00 14.06 С 1-2
{2}
35 км н/о +14.3 +9.7 74 +15 +15 1014.5 1012.6 0
01 14.06 С 1-2
{3}
40 км н/о +13.9 +9.5 75 +14 +14 1013.7 1011.8
02 14.06 С 1-1
{3}
40 км 10/10
[]
+13.9 +9.7 76 +15 +15 1013.3 1011.4
03 14.06 С 1-2
{2}
40 км 10/0
[]
+14.9 +9.3 69 +15 +15 1012.7 1010.8 0
04 14.06 С 1 40 км 9/9
[]
+14.6 +10.4 76 +16 +16 1013.2 1011.3 0.2
05 14.06 СЗ 2-3
{3}
29 км 10/10
[]
+14.7 +11.5 81 +15 +15 1012.6 1010.7 0.2
06 14.06 СЗ 1
{4}
20 км слаб. дождь 10/10 1500 м
[]
+14.5 +12.4 87 +16 +16 1011.9 1010.0 +13.7 +19.2 0.8 0
07 14.06 СЗ 3 19 км слаб. дождь 10/10 2000 м
[]
+14.5 +12.5 88 +14 +14 1012.9 1011.0 1
08 14.06 СЗ 2 27 км 9/9
[]
+15.1 +12.4 84 +15 +16 1012.3 1010.4 0.0
09 14.06 СЗ 2-3
{4}
29 км н/о +17.3 +14.2 82 +18 +18 1011.5 1009.6 1 1
10 14.06 З 2-3
{3}
29 км н/о +19.7 +15.1 75 +22 +22 комфорт 1011.2 1009.3
11 14.06 З 3-4
{4}
19 км н/о +23.2 +15.0 60 +27 +27 душно 1010.6 1008.8
12 14.06 СВ 2-4
{4}
35 км н/о +24.2 +14.3 54 +27 +27 жарко 1008.3 1006.5 1
13 14.06 ЮЗ 2-4
{6}
30 км н/о +26.5 +15.8 52 +30 +30 душно 1009.3 1007.5
14 14.06 З 2-4
{6}
30 км 8/8
[]
+22.3 +13.6 58 +25 +28 комфорт 1009.1 1007.2
15 14.06 СЗ 2-2
{4}
35 км н/о +24.0 +15.0 57 +27 +27 жарко 1007.8 1006.0 1
16 14.06 С 1 30 км н/о +25.2 +13.4 48 +27 +27 жарко 1008.4 1006.6
17 14.06 З 3-5
{5}
30 км 10/10 1410 м
[]
+22.9 +14.7 60 +27 +27 душно 1009.1 1007.3
18 14.06 С 2
{10}
19 км 8/8 1500 м
[]
+23.3 +15.6 62 +28 +28 душно 1009.1 1007.3 +14.4 +26.8 1
19 14.06 СЗ 3-4
{4}
28 км н/о +20.9 +15.0 69 +24 +24 комфорт 1010.4 1008.5
20 14.06 СЗ 3-4
{5}
35 км 10/10 1020 м
[]
+20.4 +14.1 67 +23 +23 комфорт 1011.7 1009.8
21 14.06 З 2-4
{4}
40 км 10/10 1000 м
[]
+20.0 +14.8 72 +23 +23 комфорт 1012.7 1010.8 1
22 14.06 З 2-3
{4}
25 км н/о +17.9 +14.8 82 +18 +18 1013.5 1011.6
23 14.06 З 3 25 км 10/10 1260 м
[]
+17.7 +14.4 81 +18 +18 1014.0 1012.1
00 15.06 З 3-5
{5}
22 км н/о +17.0 +14.1 83 +17 +17 1014.0 1012.1 1
01 15.06 З 3-4
{5}
18 км н/о +16.3 +14.0 86 +16 +16 1014.1 1012.2
02 15.06 З 3-4
{4}
21 км н/о +16.0 +13.5 85 +16 +16 1014.3 1012.4
03 15.06 З 3-4
{4}
20 км н/о +15.5 +13.3 87 +15 +15 1014.9 1013.0 1
04 15.06 З 1-2
{4}
20 км н/о +14.6 +12.8 89 +15 +15 1015.1 1013.2
05 15.06 З 2-3
{3}
26 км 10/10 1200 м
[]
+16.0 +13.7 86 +16 +16 1015.2 1013.3
06 15.06 З 2
{7}
25 км 10/10 1000 м
[]
+16.5 +13.8 84 +17 +17 1015.7 1013.8 +14.6 +23.3 1
07 15.06 З 3-4
{4}
29 км 10/10 1380 м
[]
+18.2 +14.1 77 +19 +19 1016.0 1014.1
08 15.06 З 2-3
{4}
40 км 10/10 1500 м
[]
+20.3 +14.6 70 +23 +23 комфорт 1016.7 1014.8
09 15.06 З 3
{7}
40 км 10/10 1000 м
[]
+20.7 +14.6 68 +24 +28 комфорт 1016.9 1015.0 1
10 15.06 З 3-4
{4}
26 км 9/9 1500 м
[]
+21.6 +14.3 63 +25 +26 комфорт 1016.9 1015.0
11 15.06 З 3-4
{5}
30 км 10/10 1500 м
[]
+23.2 +14.7 59 +27 +27 душно 1016.9 1015.0
12 15.06 З 4-6
{6}
28 км н/о +24.8 +15.4 56 +28 +28 жарко 1016.9 1015.0 0
13 15.06 З 4-6
{7}
22 км н/о +24.9 +14.7 53 +28 +28 жарко 1016.6 1014.8
14 15.06 СЗ 3-5
{7}
35 км 9/9 1380 м
[]
+24.4 +13.6 51 +27 +28 жарко 1016.8 1014.9
15 15.06 С 4-6
{6}
45 км 9/9 1500 м
[]
+24.2 +13.1 50 +26 +27 жарко 1017.3 1015.4 0
16 15.06 СЗ 5-7
{7}
27 км н/о +24.2 +12.2 47 +26 +26 жарко 1017.4 1015.5
17 15.06 СЗ 5-6
{6}
22 км н/о +23.5 +11.9 48 +25 +25 комфорт 1017.8 1015.9
18 15.06 СЗ 5
{14}
21 км н/о +22.0 +11.1 50 +24 +24 комфорт 1018.5 1016.6 +16.5 +25.8 1
19 15.06 СЗ 5-7
{7}
23 км н/о +20.1 +10.2 53 +21 +21 комфорт 1019.1 1017.2
20 15.06 СЗ 2-3
{6}
55 км н/о +18.4 +10.0 58 +19 +19 1019.8 1017.9
21 15.06 З 2-3
{3}
50 км 8/0
[]
+17.5 +10.4 63 +18 +18 1020.4 1018.5 1
22 15.06 З 2-3
{4}
50 км н/о +17.2 +10.8 66 +18 +18 1020.7 1018.8
23 15.06 З 2-3
{3}
40 км н/о +15.4 +11.0 75 +15 +15 1020.8 1018.9
00 16.06 З 2-2
{4}
40 км н/о +15.0 +10.6 75 +15 +15 1021.0 1019.1 1
01 16.06 З 1-1
{2}
40 км н/о +13.6 +10.0 79 +14 +14 1020.8 1018.9
02 16.06 З 2-2
{3}
35 км н/о +12.8 +10.2 84 +12 +12 1020.6 1018.7
03 16.06 З 2-2
{2}
40 км н/о +11.9 +10.0 88 +11 +11 1020.3 1018.4 1
04 16.06 СЗ 2-2
{2}
30 км н/о +11.3 +9.6 89 +10 +10 1020.2 1018.3
05 16.06 З 2-2
{3}
25 км н/о +13.6 +10.8 83 +13 +13 1020.4 1018.5
06 16.06 З 2
{5}
26 км н/о +17.4 +11.0 66 +18 +18 1020.7 1018.8 +11.0 +21.9 1
07 16.06 СЗ 4-5
{6}
23 км н/о +20.1 +10.2 53 +22 +22 комфорт 1020.3 1018.4
08 16.06 СЗ 4-6
{7}
19 км н/о +22.0 +9.5 45 +24 +24 комфорт 1020.1 1018.2
09 16.06 СЗ 4-6
{6}
22 км н/о +24.2 +7.8 35 +25 +25 комфорт 1019.7 1017.8
10 16.06 СЗ 3-5
{6}
25 км н/о +25.1 +7.7 33 +25 +25 комфорт 1019.4 1017.5
11 16.06 СЗ 3-6
{6}
24 км н/о +26.0 +7.6 31 +26 +26 жарко 1018.8 1016.9
12 16.06 С 3-4
{6}
25 км н/о +27.4 +7.3 28 +27 +27 жарко 1017.8 1016.0
13 16.06 СЗ 2-5
{6}
28 км н/о +28.8 +6.8 25 +28 +28 жарко 1017.0 1015.2
14 16.06 С 2-5
{6}
29 км н/о +29.4 +6.1 23 +28 +28 жарко 1016.5 1014.7
15 16.06 СЗ 2-4
{6}
35 км н/о +30.9 +6.7 22 +29 +29 жарко 1015.9 1014.1
16 16.06 СЗ 2-5
{5}
30 км н/о +30.8 +6.6 22 +29 +29 жарко 1015.5 1013.7
17 16.06 СЗ 3-4
{5}
30 км н/о +30.4 +7.6 24 +29 +29 жарко 1015.2 1013.4
18 16.06 СЗ 3-4
{4}
29 км н/о +29.3 +10.9 32 +30 +30 жарко 1015.1 1013.3 +17.4 +31.4
19 16.06 СЗ 2-3
{4}
40 км н/о +27.4 +11.8 38 +29 +29 жарко 1015.3 1013.5
20 16.06 СЗ 2-2
{3}
55 км н/о +24.4 +11.7 45 +26 +26 жарко 1015.9 1014.0
21 16.06 З 2-2
{4}
50 км н/о +21.5 +11.8 54 +24 +24 комфорт 1016.6 1014.7
22 16.06 СЗ 2-2
{2}
45 км н/о +19.3 +11.8 62 +21 +21 комфорт 1016.7 1014.8
23 16.06 СЗ 1-2
{3}
45 км н/о +19.5 +12.3 63 +22 +22 комфорт 1016.5 1014.6
00 17.06 З 2-2
{2}
19 км н/о +17.2 +11.5 69 +18 +18 1016.6 1014.7
01 17.06 ЮЗ 2-2
{2}
45 км н/о +17.4 +11.2 67 +18 +18 1016.5 1014.6
02 17.06 З 2-2
{2}
40 км н/о +15.0 +10.4 74 +15 +15 1016.1 1014.2
03 17.06 С 1-2
{2}
40 км н/о +14.6 +10.4 76 +16 +16 1016.4 1014.5
04 17.06 С 1-2
{2}
40 км н/о +13.9 +10.5 80 +14 +14 1016.4 1014.5
05 17.06 З 2-2
{2}
27 км н/о +15.3 +11.7 79 +15 +15 1016.6 1014.7
06 17.06 З 1
{3}
60 км н/о +19.3 +12.3 64 +22 +22 комфорт 1017.0 1015.1 +13.3 +29.3
07 17.06 З 2-2
{2}
50 км н/о +21.7 +12.3 55 +24 +24 комфорт 1016.9 1015.0
08 17.06 ЮЗ 1-3
{3}
45 км н/о +23.6 +12.3 49 +25 +25 комфорт 1016.8 1014.9
09 17.06 З 1-2
{2}
35 км н/о +26.9 +11.0 37 +28 +28 жарко 1016.5 1014.7
10 17.06 Ю 1-3
{4}
35 км н/о +27.8 +11.4 36 +29 +29 жарко 1016.1 1014.3
11 17.06 Ю 3-4
{4}
30 км н/о +28.1 +11.2 35 +29 +29 жарко 1015.9 1014.1
12 17.06 Ю 3-4
{5}
27 км н/о +28.2 +10.8 34 +29 +29 жарко 1015.4 1013.6
13 17.06 ЮВ 3-5
{5}
24 км н/о +27.9 +11.0 35 +29 +29 жарко 1015.2 1013.4
14 17.06 Ю 3-5
{5}
21 км н/о +26.9 +11.8 39 +28 +28 жарко 1015.0 1013.2
15 17.06 Ю 3-5
{5}
20 км н/о +25.2 +12.4 45 +27 +27 жарко 1015.0 1013.2
16 17.06 Ю 5-5
{10}
18 км н/о +24.9 +13.1 48 +27 +27 жарко 1014.6 1012.8
17 17.06 Ю 3-4
{5}
20 км н/о +24.1 +13.0 50 +26 +26 жарко 1014.6 1012.7
18 17.06 ЮЗ 2-3
{4}
29 км н/о +24.0 +12.9 50 +26 +26 жарко 1014.6 1012.7 +19.3 +28.9
19 17.06 ЮЗ 1-2
{3}
35 км н/о +22.8 +13.0 54 +26 +26 жарко 1014.7 1012.8
20 17.06 штиль 0-1
{2}
18 км н/о +20.7 +12.7 60 +23 +23 комфорт 1014.7 1012.8
21 17.06 В 1-1
{1}
35 км н/о +18.3 +12.3 68 +20 +20 1015.1 1013.2
22 17.06 СВ 1-2
{2}
30 км н/о +17.0 +12.1 73 +18 +18 1015.2 1013.3
23 17.06 С 1-1
{2}
30 км н/о +16.2 +12.2 77 +17 +17 1015.1 1013.2
00 18.06 СВ 1-1
{2}
30 км н/о +16.4 +12.4 77 +18 +18 1015.0 1013.1
01 18.06 СВ 3-3
{3}
23 км н/о +17.0 +14.5 85 +17 +17 1014.3 1012.4
02 18.06 СВ 2-3
{3}
24 км н/о +16.2 +13.9 86 +16 +16 1014.4 1012.5
03 18.06 СВ 1-2
{3}
22 км н/о +15.5 +13.2 86 +16 +16 1014.5 1012.6
04 18.06 СВ 2-2
{3}
21 км н/о +16.1 +13.9 87 +16 +16 1014.5 1012.6
05 18.06 С 1-2
{2}
23 км н/о +16.2 +13.9 86 +17 +17 1014.8 1012.9
06 18.06 СВ 2
{6}
21 км 8/0
[]
+19.0 +14.5 75 +21 +21 комфорт 1014.8 1012.9 +15.4 +24.0
07 18.06 В 3-4
{5}
29 км н/о +20.8 +16.0 74 +25 +25 комфорт 1014.6 1012.7
08 18.06 СВ 3-4
{5}
25 км н/о +23.3 +15.6 62 +28 +28 душно 1014.8 1012.9
09 18.06 В 4-5
{6}
23 км н/о +25.4 +11.6 42 +27 +27 жарко 1014.6 1012.8
10 18.06 В 4-5
{6}
22 км н/о +26.1 +13.2 45 +28 +28 жарко 1014.3 1012.5
11 18.06 В 4-5
{5}
20 км н/о +25.7 +14.5 50 +28 +28 жарко 1014.1 1012.3
12 18.06 В 4-5
{5}
18 км н/о +25.3 +16.2 57 +29 +29 душно 1013.8 1012.0
13 18.06 ЮВ 3-5
{5}
16 км н/о +25.9 +15.0 51 +29 +29 душно 1013.6 1011.8
14 18.06 В 3-4
{5}
15 км н/о +25.3 +15.0 53 +28 +28 жарко 1013.3 1011.5
15 18.06 В 3-5
{5}
15 км н/о +24.8 +14.6 53 +27 +27 жарко 1013.3 1011.5 0
16 18.06 ЮВ 3-5
{5}
15 км н/о +23.9 +14.0 54 +26 +26 жарко 1013.0 1011.2
17 18.06 В 3-5
{5}
16 км н/о +23.1 +14.1 57 +27 +27 душно 1012.8 1010.9
18 18.06 ЮВ 2-4
{5}
24 км н/о +22.6 +14.2 59 +26 +26 жарко 1012.9 1011.0 +19.1 +26.4 0
19 18.06 В 3-4
{4}
28 км н/о +21.5 +13.9 62 +24 +24 комфорт 1012.6 1010.7
20 18.06 В 3-4
{4}
26 км н/о +20.4 +14.5 69 +23 +23 комфорт 1012.7 1010.8
21 18.06 СВ 2-3
{4}
24 км н/о +19.7 +14.7 73 +22 +22 комфорт 1012.8 1010.9 0
22 18.06 СВ 2-3
{4}
23 км н/о +19.6 +14.8 74 +22 +22 комфорт 1012.6 1010.7

 

Местоположение метеостанции Безье (Франция): широта 43.32 долгота 3.35 высота над уровнем моря 16 м.

В архиве по умолчанию представлена погода в Безье за последнюю неделю. Архивные данные за месяц целиком и за предыдущие месяцы, начиная с января 2011 года, Вы можете получить, выбрав интересующий диапазон дат из раскрывающегося списка и нажав кнопку "Ввод!".


*Определитесь, кто Вы:
робот инопланетянин человек

Внимание! Время в таблицах - всемирное. Для получения местного времени необходимо прибавить поправку, которая равна 1 ч.

Смотрите также архив погоды в соседних городах и на ближайших метеорологических станциях:

Погода в Лёкате (Франция) (50 км)
Погода в Монпелье (Франция) (58 км)
Погода в Перпиньяне (Франция) (76 км)
Погода в Каркассоне (Франция) (84 км)
Погода на Мысе Беар (Франция) (91 км)
Погода в Мон Эгуале (Франция) (91 км)
Погода в Мийо (Франция) (93 км)
Погода в Ниме (Франция) (99 км)
Погода в Ним аэропорту (Франция) (104 км)
Погода в Сете (Франция) (106 км)

Пояснения к столбцам:

Ветер - указаны скорость ветра в м/с - средняя за 10 мин, порывы в срок и между сроками (в фигурных скобках) и направление, откуда дует ветер: С - северный, СВ - северо-восточный, В - восточный, ЮВ - юго-восточный, Ю - южный, ЮЗ - юго-западный, З - западный, СЗ - северо-западный.
Видимость - горизонтальная дальность видимости в метрах или километрах. При видимости от 1 до 10 км при отсутствии осадков обычно наблюдается дымка, при ухудшении видимости до 1 км и менее - туман. В сухую погоду видимость может ухудшаться дымом, пылью или мглою.
Явления - указаны атмосферные явления, наблюдавшиеся в срок или в последний час перед сроком; фигурными скобками обозначены явления, наблюдавшиеся между сроками (за 1-3 часа до срока); квадратными скобками обозначены град или гололедные отложения с указанием их диаметра в мм.
Облачность - указаны через наклонную черту общая и нижняя облачность в баллах и высота нижней границы облаков в метрах; квадратными скобками обозначены формы облаков: Ci - перистые, Cs - перисто-слоистые, Cc - перисто-кучевые, Ac - высококучевые, As - высокослоистые, Sc - слоисто-кучевые, Ns - слоисто-дождевые, Cu - кучевые, Cb - кучево-дождевые. Подробнее классификацию облаков см. в Атласе облаков (PDF).
T - Температура воздуха - температура, измеренная на высоте 2 м над землей.
Td - Температура точки росы - температура, при понижении до которой содержащийся в воздухе водяной пар достигнет насыщения.
f - Относительная влажность воздуха - влажноcть воздуха, измеренная на высоте 2 м над землей.
Te - Эффективная температура - температура, которую ощущает одетый по сезону человек в тени. Характеристика душности погоды. При расчете учитывается влияние влажности воздуха и скорости ветра на теплоощущения человека.
Tes - Эффективная температура на солнце - температура, которую ощущает человек, с поправкой на солнечный нагрев. Характеристика знойности погоды. Зависит от высоты солнца над горизонтом, облачности и скорости ветра. Ночью, в пасмурную погоду, а также при ветре 12 м/с и более поправка равна нулю.
P - Атмосферное давление - приведенное к уровню моря атмосферное давление.
Po - Атмосферное давление - измеренное на уровне метеостанции атмосферное давление.
Tmin - Минимальная температура - минимум температуры воздуха на высоте 2 м над землей.
Tmax - Максимальная температура - максимум температуры воздуха на высоте 2 м над землей.
R - Количество осадков - Количество выпавших осадков за период времени, мм. При наведении курсора мыши на число - период времени, за который выпало указанное количество осадков.
R24 - Количество осадков - Количество выпавших осадков за 24 часа, мм.
S - Снежный покров - Высота снежного покрова, см. При наведении курсора мыши на число - состояние снежного покрова и степень покрытия местности в баллах.